Location: Dąbrówka
(52.2799°N, 15.8070°E)
Time: 02:14:15
(UTC+02:00)

ISS - Visible Passes

Search period start: 26 April 2019 00:00
Search period end: 06 May 2019 00:00
Orbit: 408 x 410 km, 51.6° (Epoch: 26 April)

Date Brightness Start Highest point End Pass type
(mag) Time Alt. Az. Time Alt. Az. Time Alt. Az.
01 May -1.2 04:32:40 10° SSE 04:34:04 12° SE 04:35:28 10° ESE visible
03 May -2.0 04:25:54 10° SSW 04:28:33 22° SSE 04:31:11 10° E visible
04 May -1.6 03:36:36 13° SSE 03:37:52 15° SE 03:39:52 10° ESE visible
05 May -2.9 04:20:15 12° SW 04:23:05 37° SSE 04:26:12 10° E visible
